OBJECT R, 43891

Orbit data source: Space-Track

You're viewing an uncataloged RSO

Recently launched and/or uncataloged RSOs may have evolving metadata. Metadata may include the following, but is not limited to: Owner, Manufacturer, Bus, Motor, and Mission.

OBJECT R, 43891 is a satellite in SSO that was launched on Thu, 27 Dec 2018 UTC via a SOYUZ-2-1A launch vehicle from the Vostochny Cosmodrome (VOSTO). Unknown objects in Earth's orbit typically refer to objects detected orbiting the Earth but have not yet been identified or cataloged. These objects could be anything from previously untracked satellites, spent rocket stages, debris from satellite collisions, or even natural meteoroids temporarily captured by Earth's gravity.

Loading next visibility...
Identifier
43891, 2018-111R
Orbit
SSO
Country
Flag of TBDTBD
Related business
None
Manufacturer
Unknown
Mission
Non-operational Civil Technology
Bus & Motor
Unknown
Mass
Unknown
Launch date (UTC)
2018-12-27 (8 years ago)
Launch vehicle
SOYUZ-2-1A
Launch site
Vostochny Cosmodrome (VOSTO)
Object type
Unknown
Shape & HBR
Box, 0.2 m
Radar Cross Section
0.080 m², Medium (>0.1 m² and < 1m²)

Expand to show TLE details & history
Last TLE update: 13 hours ago

TLE from 13 hours ago
0 OBJECT R
1 43891U 18111R   26255.33153571  .00001553  00000-0  43305-4 0  9998
2 43891  97.0049  87.0629 0017918 317.6736  42.3126 15.38069310429826
Epoch: 2026-09-12T07:57Z
TLE epoch observation values (Epoch: 2026-09-12T07:57:24.685Z)
Latitude
-0.00006°
Longitude
-23.63201°
Altitude
445.903 km
Speed
7.65 km/s
True Right ascension
05h 48m 15s
True Declination
0° 00' 00"
Sunlit
Object was in daylight at epoch
Visualization orbit readout
Latitude
Unknown
Longitude
Unknown
Altitude
Unknown
Speed
Unknown
Apparent Right ascension
Unknown
Apparent Declination
Unknown
Sunlit
N/A
Visualization observer readout
Local Sidereal Time
13:44:14
Azimuth
Unknown
Elevation
Unknown
Doppler factor
Unknown
Orbital elements
Apogee altitude
460.976 km
Perigee altitude
436.511 km
Semi-major axis
6,826.881 km
Eccentricity
0.00179
Inclination
97.0049°
RAAN
87.0629°
Arg. of periapsis
317.6736°
True anomaly
42.45105°
Mean anomaly
42.3126°
Eccentric anomaly
42.3818°
Mean motion
3.84778 °/min
Orbital period
93.56 mins
BSTAR
0.000043305
Loading maneuver chart data...
Computing Atmospheric mass density...

Documentation

Showing up to 5 results
|